Year,Month,Day,Hour,Minute,Value (Times are PST for temperature in C)
2022,04,26,00,00,4.40
2022,04,26,00,01,4.40
2022,04,26,00,02,4.40
2022,04,26,00,03,4.30
2022,04,26,00,04,4.30
2022,04,26,00,05,4.30
2022,04,26,00,06,4.30
2022,04,26,00,07,4.30
2022,04,26,00,08,4.20
2022,04,26,00,09,4.20
2022,04,26,00,10,4.20
2022,04,26,00,11,4.20
2022,04,26,00,12,4.20
2022,04,26,00,13,4.20
2022,04,26,00,14,4.20
2022,04,26,00,15,4.20
2022,04,26,00,16,4.20
2022,04,26,00,17,4.20
2022,04,26,00,18,4.10
2022,04,26,00,19,4.10
2022,04,26,00,20,4.10
2022,04,26,00,21,4.10
2022,04,26,00,22,4.10
2022,04,26,00,23,4.10
2022,04,26,00,24,4.10
2022,04,26,00,25,4.10
2022,04,26,00,26,4.10
2022,04,26,00,27,4.10
2022,04,26,00,28,4.00
2022,04,26,00,29,4.00
2022,04,26,00,30,4.00
2022,04,26,00,31,4.00
2022,04,26,00,32,4.00
2022,04,26,00,33,3.90
2022,04,26,00,34,3.90
2022,04,26,00,35,3.90
2022,04,26,00,36,3.90
2022,04,26,00,37,3.90
2022,04,26,00,38,3.90
2022,04,26,00,39,3.90
2022,04,26,00,40,3.80
2022,04,26,00,41,3.80
2022,04,26,00,42,3.80
2022,04,26,00,43,3.80
2022,04,26,00,44,3.80
2022,04,26,00,45,3.80
2022,04,26,00,46,3.80
2022,04,26,00,47,3.80
2022,04,26,00,48,3.80
2022,04,26,00,49,3.80
2022,04,26,00,50,3.80
2022,04,26,00,51,3.80
2022,04,26,00,52,3.70
2022,04,26,00,53,3.70
2022,04,26,00,54,3.70
2022,04,26,00,55,3.70
2022,04,26,00,56,3.70
2022,04,26,00,57,3.70
2022,04,26,00,58,3.70
2022,04,26,00,59,3.70
2022,04,26,01,00,3.70
2022,04,26,01,01,3.70
2022,04,26,01,02,3.70
2022,04,26,01,03,3.60
2022,04,26,01,04,3.60
2022,04,26,01,05,3.60
2022,04,26,01,06,3.60
2022,04,26,01,07,3.60
2022,04,26,01,08,3.60
2022,04,26,01,09,3.60
2022,04,26,01,10,3.60
2022,04,26,01,11,3.60
2022,04,26,01,12,3.60
2022,04,26,01,13,3.50
2022,04,26,01,14,3.50
2022,04,26,01,15,3.50
2022,04,26,01,16,3.50
2022,04,26,01,17,3.50
2022,04,26,01,18,3.50
2022,04,26,01,19,3.50
2022,04,26,01,20,3.50
2022,04,26,01,21,3.40
2022,04,26,01,22,3.40
2022,04,26,01,23,3.40
2022,04,26,01,24,3.40
2022,04,26,01,25,3.40
2022,04,26,01,26,3.40
2022,04,26,01,27,3.40
2022,04,26,01,28,3.40
2022,04,26,01,29,3.40
2022,04,26,01,30,3.30
2022,04,26,01,31,3.30
2022,04,26,01,32,3.30
2022,04,26,01,33,3.30
2022,04,26,01,34,3.30
2022,04,26,01,35,3.30
2022,04,26,01,36,3.30
2022,04,26,01,37,3.30
2022,04,26,01,38,3.30
2022,04,26,01,39,3.30
2022,04,26,01,40,3.30
2022,04,26,01,41,3.30
2022,04,26,01,42,3.20
2022,04,26,01,43,3.20
2022,04,26,01,44,3.20
2022,04,26,01,45,3.20
2022,04,26,01,46,3.20
2022,04,26,01,47,3.20
2022,04,26,01,48,3.20
2022,04,26,01,49,3.20
2022,04,26,01,50,3.20
2022,04,26,01,51,3.20
2022,04,26,01,52,3.20
2022,04,26,01,53,3.10
2022,04,26,01,54,3.20
2022,04,26,01,55,3.10
2022,04,26,01,56,3.10
2022,04,26,01,57,3.10
2022,04,26,01,58,3.10
2022,04,26,01,59,3.10
2022,04,26,02,00,3.10
2022,04,26,02,01,3.10
2022,04,26,02,02,3.10
2022,04,26,02,03,3.10
2022,04,26,02,04,3.10
2022,04,26,02,05,3.10
2022,04,26,02,06,3.10
2022,04,26,02,07,3.10
2022,04,26,02,08,3.00
2022,04,26,02,09,3.00
2022,04,26,02,10,3.00
2022,04,26,02,11,3.00
2022,04,26,02,12,2.90
2022,04,26,02,13,2.90
2022,04,26,02,14,2.90
2022,04,26,02,15,2.90
2022,04,26,02,16,2.90
2022,04,26,02,17,2.90
2022,04,26,02,18,2.90
2022,04,26,02,19,2.90
2022,04,26,02,20,2.90
2022,04,26,02,21,2.90
2022,04,26,02,22,2.90
2022,04,26,02,23,2.90
2022,04,26,02,24,2.90
2022,04,26,02,25,2.80
2022,04,26,02,26,2.90
2022,04,26,02,27,2.80
2022,04,26,02,28,2.80
2022,04,26,02,29,2.80
2022,04,26,02,30,2.80
2022,04,26,02,31,2.80
2022,04,26,02,32,2.80
2022,04,26,02,33,2.80
2022,04,26,02,34,2.80
2022,04,26,02,35,2.80
2022,04,26,02,36,2.80
2022,04,26,02,37,2.80
2022,04,26,02,38,2.80
2022,04,26,02,39,2.80
2022,04,26,02,40,2.80
2022,04,26,02,41,2.80
2022,04,26,02,42,2.80
2022,04,26,02,43,2.80
2022,04,26,02,44,2.80
2022,04,26,02,45,2.80
2022,04,26,02,46,2.80
2022,04,26,02,47,2.80
2022,04,26,02,48,2.80
2022,04,26,02,49,2.80
2022,04,26,02,50,2.80
2022,04,26,02,51,2.80
2022,04,26,02,52,2.70
2022,04,26,02,53,2.70
2022,04,26,02,54,2.70
2022,04,26,02,55,2.70
2022,04,26,02,56,2.70
2022,04,26,02,57,2.70
2022,04,26,02,58,2.70
2022,04,26,02,59,2.70
2022,04,26,03,00,2.70
2022,04,26,03,01,2.70
2022,04,26,03,02,2.70
2022,04,26,03,03,2.70
2022,04,26,03,04,2.70
2022,04,26,03,05,2.70
2022,04,26,03,06,2.70
2022,04,26,03,07,2.70
2022,04,26,03,08,2.70
2022,04,26,03,09,2.80
2022,04,26,03,10,2.80
2022,04,26,03,11,2.80
2022,04,26,03,12,2.80
2022,04,26,03,13,2.80
2022,04,26,03,14,2.80
2022,04,26,03,15,2.80
2022,04,26,03,16,2.80
2022,04,26,03,17,2.80
2022,04,26,03,18,2.80
2022,04,26,03,19,2.80
2022,04,26,03,20,2.80
2022,04,26,03,21,2.80
2022,04,26,03,22,2.80
2022,04,26,03,23,2.80
2022,04,26,03,24,2.80
2022,04,26,03,25,2.90
2022,04,26,03,26,2.90
2022,04,26,03,27,2.90
2022,04,26,03,28,2.90
2022,04,26,03,29,2.90
2022,04,26,03,30,2.90
2022,04,26,03,31,2.90
2022,04,26,03,32,2.90
2022,04,26,03,33,2.90
2022,04,26,03,34,2.90
2022,04,26,03,35,2.90
2022,04,26,03,36,2.90
2022,04,26,03,37,3.00
2022,04,26,03,38,3.00
2022,04,26,03,39,3.00
2022,04,26,03,40,3.00
2022,04,26,03,41,3.00
2022,04,26,03,42,3.00
2022,04,26,03,43,3.10
2022,04,26,03,44,3.10
2022,04,26,03,45,3.10
2022,04,26,03,46,3.10
2022,04,26,03,47,3.10
2022,04,26,03,48,3.20
2022,04,26,03,49,3.20
2022,04,26,03,50,3.20
2022,04,26,03,51,3.20
2022,04,26,03,52,3.20
2022,04,26,03,53,3.20
2022,04,26,03,54,3.20
2022,04,26,03,55,3.20
2022,04,26,03,56,3.30
2022,04,26,03,57,3.30
2022,04,26,03,58,3.30
2022,04,26,03,59,3.30
2022,04,26,04,00,3.30
2022,04,26,04,01,3.30
2022,04,26,04,02,3.30
2022,04,26,04,03,3.30
2022,04,26,04,04,3.40
2022,04,26,04,05,3.30
2022,04,26,04,06,3.40
2022,04,26,04,07,3.40
2022,04,26,04,08,3.40
2022,04,26,04,09,3.40
2022,04,26,04,10,3.40
2022,04,26,04,11,3.40
2022,04,26,04,12,3.40
2022,04,26,04,13,3.40
2022,04,26,04,14,3.40
2022,04,26,04,15,3.40
2022,04,26,04,16,3.40
2022,04,26,04,17,3.40
2022,04,26,04,18,3.40
2022,04,26,04,19,3.40
2022,04,26,04,20,3.40
2022,04,26,04,21,3.40
2022,04,26,04,22,3.40
2022,04,26,04,23,3.40
2022,04,26,04,24,3.40
2022,04,26,04,25,3.40
2022,04,26,04,26,3.40
2022,04,26,04,27,3.40
2022,04,26,04,28,3.40
2022,04,26,04,29,3.40
2022,04,26,04,30,3.40
2022,04,26,04,31,3.40
2022,04,26,04,32,3.40
2022,04,26,04,33,3.40
2022,04,26,04,34,3.40
2022,04,26,04,35,3.40
2022,04,26,04,36,3.40
2022,04,26,04,37,3.40
2022,04,26,04,38,3.40
2022,04,26,04,39,3.40
2022,04,26,04,40,3.40
2022,04,26,04,41,3.40
2022,04,26,04,42,3.40
2022,04,26,04,43,3.40
2022,04,26,04,44,3.40
2022,04,26,04,45,3.40
2022,04,26,04,46,3.40
2022,04,26,04,47,3.40
2022,04,26,04,48,3.40
2022,04,26,04,49,3.40
2022,04,26,04,50,3.40
2022,04,26,04,51,3.40
2022,04,26,04,52,3.40
2022,04,26,04,53,3.40
2022,04,26,04,54,3.40
2022,04,26,04,55,3.40
2022,04,26,04,56,3.50
2022,04,26,04,57,3.50
2022,04,26,04,58,3.50
2022,04,26,04,59,3.50
2022,04,26,05,00,3.50
2022,04,26,05,01,3.50
2022,04,26,05,02,3.50
2022,04,26,05,03,3.50
2022,04,26,05,04,3.50
2022,04,26,05,05,3.60
2022,04,26,05,06,3.50
2022,04,26,05,07,3.60
2022,04,26,05,08,3.60
2022,04,26,05,09,3.60
2022,04,26,05,10,3.60
2022,04,26,05,11,3.60
2022,04,26,05,12,3.60
2022,04,26,05,13,3.60
2022,04,26,05,14,3.60
2022,04,26,05,15,3.60
2022,04,26,05,16,3.60
2022,04,26,05,17,3.60
2022,04,26,05,18,3.60
2022,04,26,05,19,3.60
2022,04,26,05,20,3.60
2022,04,26,05,21,3.60
2022,04,26,05,22,3.60
2022,04,26,05,23,3.60
2022,04,26,05,24,3.60
2022,04,26,05,25,3.60
2022,04,26,05,26,3.60
2022,04,26,05,27,3.60
2022,04,26,05,28,3.60
2022,04,26,05,29,3.60
2022,04,26,05,30,3.60
2022,04,26,05,31,3.60
2022,04,26,05,32,3.60
2022,04,26,05,33,3.60
2022,04,26,05,34,3.60
2022,04,26,05,35,3.60
2022,04,26,05,36,3.60
2022,04,26,05,37,3.60
2022,04,26,05,38,3.60
2022,04,26,05,39,3.60
2022,04,26,05,40,3.60
2022,04,26,05,41,3.60
2022,04,26,05,42,3.60
2022,04,26,05,43,3.60
2022,04,26,05,44,3.60
2022,04,26,05,45,3.60
2022,04,26,05,46,3.60
2022,04,26,05,47,3.60
2022,04,26,05,48,3.60
2022,04,26,05,49,3.60
2022,04,26,05,50,3.60
2022,04,26,05,51,3.60
2022,04,26,05,52,3.60
2022,04,26,05,53,3.60
2022,04,26,05,54,3.60
2022,04,26,05,55,3.60
2022,04,26,05,56,3.60
2022,04,26,05,57,3.60
2022,04,26,05,58,3.60
2022,04,26,05,59,3.60
2022,04,26,06,00,3.60
2022,04,26,06,01,3.60
2022,04,26,06,02,3.60
2022,04,26,06,03,3.60
2022,04,26,06,04,3.60
2022,04,26,06,05,3.60
2022,04,26,06,06,3.60
2022,04,26,06,07,3.60
2022,04,26,06,08,3.70
2022,04,26,06,09,3.60
2022,04,26,06,10,3.60
2022,04,26,06,11,3.70
2022,04,26,06,12,3.70
2022,04,26,06,13,3.70
2022,04,26,06,14,3.70
2022,04,26,06,15,3.70
2022,04,26,06,16,3.70
2022,04,26,06,17,3.70
2022,04,26,06,18,3.70
2022,04,26,06,19,3.70
2022,04,26,06,20,3.70
2022,04,26,06,21,3.70
2022,04,26,06,22,3.70
2022,04,26,06,23,3.70
2022,04,26,06,24,3.70
2022,04,26,06,25,3.70
2022,04,26,06,26,3.70
2022,04,26,06,27,3.70
2022,04,26,06,28,3.70
2022,04,26,06,29,3.70
2022,04,26,06,30,3.70
2022,04,26,06,31,3.70
2022,04,26,06,32,3.70
2022,04,26,06,33,3.70
2022,04,26,06,34,3.70
2022,04,26,06,35,3.70
2022,04,26,06,36,3.70
2022,04,26,06,37,3.70
2022,04,26,06,38,3.70
2022,04,26,06,39,3.70
2022,04,26,06,40,3.80
2022,04,26,06,41,3.80
2022,04,26,06,42,3.70
2022,04,26,06,43,3.80
2022,04,26,06,44,3.80
2022,04,26,06,45,3.80
2022,04,26,06,46,3.80
2022,04,26,06,47,3.80
2022,04,26,06,48,3.80
2022,04,26,06,49,3.80
2022,04,26,06,50,3.80
2022,04,26,06,51,3.80
2022,04,26,06,52,3.80
2022,04,26,06,53,3.80
2022,04,26,06,54,3.90
2022,04,26,06,55,3.90
2022,04,26,06,56,3.90
2022,04,26,06,57,3.90
2022,04,26,06,58,3.90
2022,04,26,06,59,3.90
2022,04,26,07,00,3.90
2022,04,26,07,01,3.90
2022,04,26,07,02,3.90
2022,04,26,07,03,3.90
2022,04,26,07,04,3.90
2022,04,26,07,05,3.90
2022,04,26,07,06,3.90
2022,04,26,07,07,3.90
2022,04,26,07,08,4.00
2022,04,26,07,09,4.00
2022,04,26,07,10,4.00
2022,04,26,07,11,4.00
2022,04,26,07,12,4.00
2022,04,26,07,13,4.00
2022,04,26,07,14,4.00
2022,04,26,07,15,4.00
2022,04,26,07,16,4.10
2022,04,26,07,17,4.10
2022,04,26,07,18,4.10
2022,04,26,07,19,4.10
2022,04,26,07,20,4.10
2022,04,26,07,21,4.10
2022,04,26,07,22,4.10
2022,04,26,07,23,4.10
2022,04,26,07,24,4.20
2022,04,26,07,25,4.20
2022,04,26,07,26,4.20
2022,04,26,07,27,4.20
2022,04,26,07,28,4.20
2022,04,26,07,29,4.20
2022,04,26,07,30,4.20
2022,04,26,07,31,4.20
2022,04,26,07,32,4.20
2022,04,26,07,33,4.30
2022,04,26,07,34,4.30
2022,04,26,07,35,4.30
2022,04,26,07,36,4.30
2022,04,26,07,37,4.40
2022,04,26,07,38,4.40
2022,04,26,07,39,4.40
2022,04,26,07,40,4.40
2022,04,26,07,41,4.40
2022,04,26,07,42,4.40
2022,04,26,07,43,4.50
2022,04,26,07,44,4.50
2022,04,26,07,45,4.50
2022,04,26,07,46,4.50
2022,04,26,07,47,4.60
2022,04,26,07,48,4.60
2022,04,26,07,49,4.60
2022,04,26,07,50,4.60
2022,04,26,07,51,4.60
2022,04,26,07,52,4.60
2022,04,26,07,53,4.60
2022,04,26,07,54,4.60
2022,04,26,07,55,4.60
2022,04,26,07,56,4.70
2022,04,26,07,57,4.70
2022,04,26,07,58,4.70
2022,04,26,07,59,4.70
2022,04,26,08,00,4.70
2022,04,26,08,01,4.80
2022,04,26,08,02,4.80
2022,04,26,08,03,4.80
2022,04,26,08,04,4.80
2022,04,26,08,05,4.80
2022,04,26,08,06,4.90
2022,04,26,08,07,4.90
2022,04,26,08,08,4.90
2022,04,26,08,09,4.90
2022,04,26,08,10,4.90
2022,04,26,08,11,5.00
2022,04,26,08,12,5.00
2022,04,26,08,13,5.00
2022,04,26,08,14,5.00
2022,04,26,08,15,5.00
2022,04,26,08,16,5.10
2022,04,26,08,17,5.10
2022,04,26,08,18,5.10
2022,04,26,08,19,5.10
2022,04,26,08,20,5.20
2022,04,26,08,21,5.20
2022,04,26,08,22,5.20
2022,04,26,08,23,5.20
2022,04,26,08,24,5.30
2022,04,26,08,25,5.30
2022,04,26,08,26,5.30
2022,04,26,08,27,5.30
2022,04,26,08,28,5.30
2022,04,26,08,29,5.40
2022,04,26,08,30,5.40
2022,04,26,08,31,5.40
2022,04,26,08,32,5.40
2022,04,26,08,33,5.50
2022,04,26,08,34,5.50
2022,04,26,08,35,5.50
2022,04,26,08,36,5.60
2022,04,26,08,37,5.60
2022,04,26,08,38,5.60
2022,04,26,08,39,5.60
2022,04,26,08,40,5.70
2022,04,26,08,41,5.70
2022,04,26,08,42,5.70
2022,04,26,08,43,5.80
2022,04,26,08,44,5.80
2022,04,26,08,45,5.80
2022,04,26,08,46,5.80
2022,04,26,08,47,5.80
2022,04,26,08,48,5.90
2022,04,26,08,49,5.90
2022,04,26,08,50,5.90
2022,04,26,08,51,6.00
2022,04,26,08,52,6.00
2022,04,26,08,53,6.00
2022,04,26,08,54,6.10
2022,04,26,08,55,6.10
2022,04,26,08,56,6.20
2022,04,26,08,57,6.20
2022,04,26,08,58,6.20
2022,04,26,08,59,6.30
2022,04,26,09,00,6.30
2022,04,26,09,01,6.30
2022,04,26,09,02,6.40
2022,04,26,09,03,6.40
2022,04,26,09,04,6.40
2022,04,26,09,05,6.50
2022,04,26,09,06,6.50
2022,04,26,09,07,6.60
2022,04,26,09,08,6.60
2022,04,26,09,09,6.60
2022,04,26,09,10,6.70
2022,04,26,09,11,6.70
2022,04,26,09,12,6.70
2022,04,26,09,13,6.80
2022,04,26,09,14,6.80
2022,04,26,09,15,6.80
2022,04,26,09,16,6.90
2022,04,26,09,17,6.90
2022,04,26,09,18,6.90
2022,04,26,09,19,6.90
2022,04,26,09,20,6.90
2022,04,26,09,21,7.00
2022,04,26,09,22,7.00
2022,04,26,09,23,7.10
2022,04,26,09,24,7.10
2022,04,26,09,25,7.10
2022,04,26,09,26,7.10
2022,04,26,09,27,7.20
2022,04,26,09,28,7.20
2022,04,26,09,29,7.20
2022,04,26,09,30,7.20
2022,04,26,09,31,7.20
2022,04,26,09,32,7.30
2022,04,26,09,33,7.30
2022,04,26,09,34,7.30
2022,04,26,09,35,7.30
2022,04,26,09,36,7.30
2022,04,26,09,37,7.30
2022,04,26,09,38,7.30
2022,04,26,09,39,7.40
2022,04,26,09,40,7.40
2022,04,26,09,41,7.40
2022,04,26,09,42,7.40
2022,04,26,09,43,7.40
2022,04,26,09,44,7.50
2022,04,26,09,45,7.50
2022,04,26,09,46,7.50
2022,04,26,09,47,7.50
2022,04,26,09,48,7.60
2022,04,26,09,49,7.60
2022,04,26,09,50,7.60
2022,04,26,09,51,7.60
2022,04,26,09,52,7.60
2022,04,26,09,53,7.60
2022,04,26,09,54,7.60
2022,04,26,09,55,7.70
2022,04,26,09,56,7.70
2022,04,26,09,57,7.70
2022,04,26,09,58,7.70
2022,04,26,09,59,7.70
2022,04,26,10,00,7.70
2022,04,26,10,01,7.70
2022,04,26,10,02,7.70
2022,04,26,10,03,7.70
2022,04,26,10,04,7.70
2022,04,26,10,05,7.80
2022,04,26,10,06,7.80
2022,04,26,10,07,7.80
2022,04,26,10,08,7.80
2022,04,26,10,09,7.80
2022,04,26,10,10,7.80
2022,04,26,10,11,7.80
2022,04,26,10,12,7.80
2022,04,26,10,13,7.80
2022,04,26,10,14,7.80
2022,04,26,10,15,7.80
2022,04,26,10,16,7.80
2022,04,26,10,17,7.80
2022,04,26,10,18,7.80
2022,04,26,10,19,7.80
2022,04,26,10,20,7.80
2022,04,26,10,21,7.80
2022,04,26,10,22,7.80
2022,04,26,10,23,7.80
2022,04,26,10,24,7.80
2022,04,26,10,25,7.80
2022,04,26,10,26,7.80
2022,04,26,10,27,7.80
2022,04,26,10,28,7.80
2022,04,26,10,29,7.80
2022,04,26,10,30,7.80
2022,04,26,10,31,7.90
2022,04,26,10,32,7.90
2022,04,26,10,33,7.90
2022,04,26,10,34,7.90
2022,04,26,10,35,7.90
2022,04,26,10,36,7.90
2022,04,26,10,37,8.00
2022,04,26,10,38,8.00
2022,04,26,10,39,8.00
2022,04,26,10,40,8.10
2022,04,26,10,41,8.00
2022,04,26,10,42,8.00
2022,04,26,10,43,8.00
2022,04,26,10,44,8.00
2022,04,26,10,45,8.00
2022,04,26,10,46,8.00
2022,04,26,10,47,8.00
2022,04,26,10,48,7.90
2022,04,26,10,49,7.90
2022,04,26,10,50,7.90
2022,04,26,10,51,7.90
2022,04,26,10,52,7.90
2022,04,26,10,53,7.90
2022,04,26,10,54,7.90
2022,04,26,10,55,7.80
2022,04,26,10,56,7.80
2022,04,26,10,57,7.80
2022,04,26,10,58,7.70
2022,04,26,10,59,7.70
2022,04,26,11,00,7.70
2022,04,26,11,01,7.60
2022,04,26,11,02,7.60
2022,04,26,11,03,7.60
2022,04,26,11,04,7.50
2022,04,26,11,05,7.50
2022,04,26,11,06,7.50
2022,04,26,11,07,7.40
2022,04,26,11,08,7.40
2022,04,26,11,09,7.30
2022,04,26,11,10,7.30
2022,04,26,11,11,7.30
2022,04,26,11,12,7.20
2022,04,26,11,13,7.20
2022,04,26,11,14,7.10
2022,04,26,11,15,7.10
2022,04,26,11,16,7.10
2022,04,26,11,17,7.00
2022,04,26,11,18,7.00
2022,04,26,11,19,7.00
2022,04,26,11,20,6.90
2022,04,26,11,21,6.90
2022,04,26,11,22,6.90
2022,04,26,11,23,6.80
2022,04,26,11,24,6.80
2022,04,26,11,25,6.80
2022,04,26,11,26,6.80
2022,04,26,11,27,6.80
2022,04,26,11,28,6.70
2022,04,26,11,29,6.70
2022,04,26,11,30,6.70
2022,04,26,11,31,6.70
2022,04,26,11,32,6.70
2022,04,26,11,33,6.70
2022,04,26,11,34,6.70
2022,04,26,11,35,6.70
2022,04,26,11,36,6.60
2022,04,26,11,37,6.60
2022,04,26,11,38,6.60
2022,04,26,11,39,6.60
2022,04,26,11,40,6.60
2022,04,26,11,41,6.60
2022,04,26,11,42,6.60
2022,04,26,11,43,6.60
2022,04,26,11,44,6.60
2022,04,26,11,45,6.60
2022,04,26,11,46,6.60
2022,04,26,11,47,6.60
2022,04,26,11,48,6.60
2022,04,26,11,49,6.50
2022,04,26,11,50,6.50
2022,04,26,11,51,6.50
2022,04,26,11,52,6.50
2022,04,26,11,53,6.40
2022,04,26,11,54,6.40
2022,04,26,11,55,6.40
2022,04,26,11,56,6.40
2022,04,26,11,57,6.30
2022,04,26,11,58,6.30
2022,04,26,11,59,6.30
2022,04,26,12,00,6.30
2022,04,26,12,01,6.20
2022,04,26,12,02,6.20
2022,04,26,12,03,6.20
2022,04,26,12,04,6.20
2022,04,26,12,05,6.20
2022,04,26,12,06,6.10
2022,04,26,12,07,6.20
2022,04,26,12,08,6.10
2022,04,26,12,09,6.20
2022,04,26,12,10,6.20
2022,04,26,12,11,6.20
2022,04,26,12,12,6.20
2022,04,26,12,13,6.20
2022,04,26,12,14,6.30
2022,04,26,12,15,6.30
2022,04,26,12,16,6.30
2022,04,26,12,17,6.40
2022,04,26,12,18,6.40
2022,04,26,12,19,6.40
2022,04,26,12,20,6.50
2022,04,26,12,21,6.50
2022,04,26,12,22,6.60
2022,04,26,12,23,6.60
2022,04,26,12,24,6.60
2022,04,26,12,25,6.70
2022,04,26,12,26,6.70
2022,04,26,12,27,6.70
2022,04,26,12,28,6.80
2022,04,26,12,29,6.80
2022,04,26,12,30,6.80
2022,04,26,12,31,6.80
2022,04,26,12,32,6.80
2022,04,26,12,33,6.80
2022,04,26,12,34,6.80
2022,04,26,12,35,6.80
2022,04,26,12,36,6.80
2022,04,26,12,37,6.80
2022,04,26,12,38,6.80
2022,04,26,12,39,6.80
2022,04,26,12,40,6.90
2022,04,26,12,41,6.90
2022,04,26,12,42,6.90
2022,04,26,12,43,6.90
2022,04,26,12,44,6.90
2022,04,26,12,45,6.90
2022,04,26,12,46,6.90
2022,04,26,12,47,6.90
2022,04,26,12,48,6.90
2022,04,26,12,49,6.90
2022,04,26,12,50,6.90
2022,04,26,12,51,6.90
2022,04,26,12,52,6.90
2022,04,26,12,53,6.90
2022,04,26,12,54,6.90
2022,04,26,12,55,6.90
2022,04,26,12,56,6.90
2022,04,26,12,57,6.90
2022,04,26,12,58,6.90
2022,04,26,12,59,6.90
2022,04,26,13,00,7.00
2022,04,26,13,01,7.00
2022,04,26,13,02,7.10
2022,04,26,13,03,7.10
2022,04,26,13,04,7.10
2022,04,26,13,05,7.20
2022,04,26,13,06,7.20
2022,04,26,13,07,7.20
2022,04,26,13,08,7.20
2022,04,26,13,09,7.20
2022,04,26,13,10,7.20
2022,04,26,13,11,7.20
2022,04,26,13,12,7.20
2022,04,26,13,13,7.20
2022,04,26,13,14,7.20
2022,04,26,13,15,7.30
2022,04,26,13,16,7.30
2022,04,26,13,17,7.30
2022,04,26,13,18,7.40
2022,04,26,13,19,7.40
2022,04,26,13,20,7.40
2022,04,26,13,21,7.40
2022,04,26,13,22,7.40
2022,04,26,13,23,7.40
2022,04,26,13,24,7.40
2022,04,26,13,25,7.40
2022,04,26,13,26,7.50
2022,04,26,13,27,7.50
2022,04,26,13,28,7.60
2022,04,26,13,29,7.60
2022,04,26,13,30,7.60
2022,04,26,13,31,7.70
2022,04,26,13,32,7.70
2022,04,26,13,33,7.70
2022,04,26,13,34,7.80
2022,04,26,13,35,7.80
2022,04,26,13,36,7.80
2022,04,26,13,37,7.80
2022,04,26,13,38,7.80
2022,04,26,13,39,7.90
2022,04,26,13,40,7.90
2022,04,26,13,41,7.90
2022,04,26,13,42,8.00
2022,04,26,13,43,8.00
2022,04,26,13,44,8.10
2022,04,26,13,45,8.20
2022,04,26,13,46,8.20
2022,04,26,13,47,8.30
2022,04,26,13,48,8.40
2022,04,26,13,49,8.40
2022,04,26,13,50,8.50
2022,04,26,13,51,8.60
2022,04,26,13,52,8.70
2022,04,26,13,53,8.70
2022,04,26,13,54,8.80
2022,04,26,13,55,8.80
2022,04,26,13,56,8.80
2022,04,26,13,57,8.90
2022,04,26,13,58,8.90
2022,04,26,13,59,8.90
2022,04,26,14,00,8.90
2022,04,26,14,01,8.90
2022,04,26,14,02,8.90
2022,04,26,14,03,8.90
2022,04,26,14,04,8.90
2022,04,26,14,05,8.90
2022,04,26,14,06,8.90
2022,04,26,14,07,8.90
2022,04,26,14,08,8.90
2022,04,26,14,09,8.90
2022,04,26,14,10,8.90
2022,04,26,14,11,8.80
2022,04,26,14,12,8.90
2022,04,26,14,13,8.90
2022,04,26,14,14,8.90
2022,04,26,14,15,8.90
2022,04,26,14,16,8.90
2022,04,26,14,17,8.90
2022,04,26,14,18,9.00
2022,04,26,14,19,9.00
2022,04,26,14,20,9.10
2022,04,26,14,21,9.10
2022,04,26,14,22,9.20
2022,04,26,14,23,9.30
2022,04,26,14,24,9.30
2022,04,26,14,25,9.40
2022,04,26,14,26,9.40
2022,04,26,14,27,9.50
2022,04,26,14,28,9.60
2022,04,26,14,29,9.60
2022,04,26,14,30,9.70
2022,04,26,14,31,9.70
2022,04,26,14,32,9.80
2022,04,26,14,33,9.80
2022,04,26,14,34,9.90
2022,04,26,14,35,9.90
2022,04,26,14,36,9.90
2022,04,26,14,37,9.90
2022,04,26,14,38,9.90
2022,04,26,14,39,9.90
2022,04,26,14,40,9.90
2022,04,26,14,41,9.90
2022,04,26,14,42,9.80
2022,04,26,14,43,9.80
2022,04,26,14,44,9.70
2022,04,26,14,45,9.60
2022,04,26,14,46,9.50
2022,04,26,14,47,9.40
2022,04,26,14,48,9.30
2022,04,26,14,49,9.30
2022,04,26,14,50,9.20
2022,04,26,14,51,9.10
2022,04,26,14,52,8.90
2022,04,26,14,53,8.80
2022,04,26,14,54,8.70
2022,04,26,14,55,8.60
2022,04,26,14,56,8.50
2022,04,26,14,57,8.50
2022,04,26,14,58,8.40
2022,04,26,14,59,8.40
2022,04,26,15,00,8.40
2022,04,26,15,01,8.30
2022,04,26,15,02,8.30
2022,04,26,15,03,8.30
2022,04,26,15,04,8.30
2022,04,26,15,05,8.30
2022,04,26,15,06,8.30
2022,04,26,15,07,8.30
2022,04,26,15,08,8.30
2022,04,26,15,09,8.30
2022,04,26,15,10,8.30
2022,04,26,15,11,8.40
2022,04,26,15,12,8.40
2022,04,26,15,13,8.50
2022,04,26,15,14,8.50
2022,04,26,15,15,8.70
2022,04,26,15,16,8.70
2022,04,26,15,17,8.80
2022,04,26,15,18,8.90
2022,04,26,15,19,9.00
2022,04,26,15,20,9.10
2022,04,26,15,21,9.20
2022,04,26,15,22,9.30
2022,04,26,15,23,9.40
2022,04,26,15,24,9.50
2022,04,26,15,25,9.60
2022,04,26,15,26,9.60
2022,04,26,15,27,9.70
2022,04,26,15,28,9.70
2022,04,26,15,29,9.80
2022,04,26,15,30,9.90
2022,04,26,15,31,9.90
2022,04,26,15,32,9.90
2022,04,26,15,33,9.90
2022,04,26,15,34,9.90
2022,04,26,15,35,10.00
2022,04,26,15,36,10.00
2022,04,26,15,37,10.10
2022,04,26,15,38,10.20
2022,04,26,15,39,10.30
2022,04,26,15,40,10.40
2022,04,26,15,41,10.40
2022,04,26,15,42,10.50
2022,04,26,15,43,10.50
2022,04,26,15,44,10.60
2022,04,26,15,45,10.60
2022,04,26,15,46,10.60
2022,04,26,15,47,10.60
2022,04,26,15,48,10.70
2022,04,26,15,49,10.70
2022,04,26,15,50,10.80
2022,04,26,15,51,10.90
2022,04,26,15,52,10.90
2022,04,26,15,53,11.00
2022,04,26,15,54,11.10
2022,04,26,15,55,11.10
2022,04,26,15,56,11.10
2022,04,26,15,57,11.20
2022,04,26,15,58,11.30
2022,04,26,15,59,11.30
2022,04,26,16,00,11.30
2022,04,26,16,01,11.30
2022,04,26,16,02,11.20
2022,04,26,16,03,11.20
2022,04,26,16,04,11.20
2022,04,26,16,05,11.30
2022,04,26,16,06,11.30
2022,04,26,16,07,11.30
2022,04,26,16,08,11.30
2022,04,26,16,09,11.30
2022,04,26,16,10,11.30
2022,04,26,16,11,11.30
2022,04,26,16,12,11.30
2022,04,26,16,13,11.40
2022,04,26,16,14,11.50
2022,04,26,16,15,11.50
2022,04,26,16,16,11.60
2022,04,26,16,17,11.60
2022,04,26,16,18,11.70
2022,04,26,16,19,11.70
2022,04,26,16,20,11.70
2022,04,26,16,21,11.70
2022,04,26,16,22,11.60
2022,04,26,16,23,11.60
2022,04,26,16,24,11.60
2022,04,26,16,25,11.60
2022,04,26,16,26,11.50
2022,04,26,16,27,11.40
2022,04,26,16,28,11.40
2022,04,26,16,29,11.20
2022,04,26,16,30,11.20
2022,04,26,16,31,11.20
2022,04,26,16,32,11.20
2022,04,26,16,33,11.20
2022,04,26,16,34,11.20
2022,04,26,16,35,11.20
2022,04,26,16,36,11.20
2022,04,26,16,37,11.20
2022,04,26,16,38,11.20
2022,04,26,16,39,11.20
2022,04,26,16,40,11.20
2022,04,26,16,41,11.20
2022,04,26,16,42,11.10
2022,04,26,16,43,11.10
2022,04,26,16,44,11.10
2022,04,26,16,45,11.10
2022,04,26,16,46,11.00
2022,04,26,16,47,11.00
2022,04,26,16,48,11.10
2022,04,26,16,49,11.10
2022,04,26,16,50,11.00
2022,04,26,16,51,11.00
2022,04,26,16,52,11.00
2022,04,26,16,53,11.00
2022,04,26,16,54,11.10
2022,04,26,16,55,11.10
2022,04,26,16,56,11.10
2022,04,26,16,57,11.10
2022,04,26,16,58,11.10
2022,04,26,16,59,11.10
2022,04,26,17,00,11.00
2022,04,26,17,01,11.00
2022,04,26,17,02,10.90
2022,04,26,17,03,10.90
2022,04,26,17,04,10.90
2022,04,26,17,05,10.90
2022,04,26,17,06,10.80
2022,04,26,17,07,10.80
2022,04,26,17,08,10.80
2022,04,26,17,09,10.70
2022,04,26,17,10,10.60
2022,04,26,17,11,10.60
2022,04,26,17,12,10.50
2022,04,26,17,13,10.40
2022,04,26,17,14,10.40
2022,04,26,17,15,10.40
2022,04,26,17,16,10.30
2022,04,26,17,17,10.30
2022,04,26,17,18,10.30
2022,04,26,17,19,10.30
2022,04,26,17,20,10.20
2022,04,26,17,21,10.20
2022,04,26,17,22,10.10
2022,04,26,17,23,10.10
2022,04,26,17,24,10.10
2022,04,26,17,25,10.00
2022,04,26,17,26,10.00
2022,04,26,17,27,10.00
2022,04,26,17,28,10.00
2022,04,26,17,29,10.00
2022,04,26,17,30,10.10
2022,04,26,17,31,10.10
2022,04,26,17,32,10.10
2022,04,26,17,33,10.10
2022,04,26,17,34,10.20
2022,04,26,17,35,10.20
2022,04,26,17,36,10.20
2022,04,26,17,37,10.20
2022,04,26,17,38,10.20
2022,04,26,17,39,10.30
2022,04,26,17,40,10.30
2022,04,26,17,41,10.30
2022,04,26,17,42,10.30
2022,04,26,17,43,10.30
2022,04,26,17,44,10.30
2022,04,26,17,45,10.30
2022,04,26,17,46,10.30
2022,04,26,17,47,10.20
2022,04,26,17,48,10.20
2022,04,26,17,49,10.20
2022,04,26,17,50,10.20
2022,04,26,17,51,10.30
2022,04,26,17,52,10.30
2022,04,26,17,53,10.30
2022,04,26,17,54,10.30
2022,04,26,17,55,10.30
2022,04,26,17,56,10.30
2022,04,26,17,57,10.30
2022,04,26,17,58,10.30
2022,04,26,17,59,10.30
2022,04,26,18,00,10.30